This demonstration page uses our WeatherBlox Daily Observations layout. Learn more.

Left ArrowRight Arrow

34.74481, -87.66753

Hourly Observations for June 27, 2019

Temp ( °F °C ) Dew Point ( °F °C ) Humidity (%) Winds ( mph kmh ) Pressure ( in mb ) Visibility ( mi km ) Precip ( " mm )
12:53 am 00:53 Clear 74 23.3 67 19.4 79 79 Calm 30.18 1022 10 16 0.00 0.00
1:53 am 01:53 Clear 73 22.8 68 20 84 84 W 5 7 30.15 1021 10 16 0.00 0.00
2:53 am 02:53 Clear 72 22.2 68 20 87 87 ENE 3 6 30.15 1021 10 16 0.00 0.00
3:53 am 03:53 Clear 72 22.2 68 20 87 87 Calm 30.16 1021 10 16 0.00 0.00
4:53 am 04:53 Cloudy 73 22.8 69 20.6 87 87 Calm 30.17 1022 10 16 0.00 0.00
5:53 am 05:53 Sunny 72 22.2 69 20.6 91 91 Calm 30.18 1022 10 16 0.00 0.00
6:53 am 06:53 Sunny 73 22.8 69 20.6 87 87 Calm 30.21 1023 10 16 0.00 0.00
7:53 am 07:53 Sunny 78 25.6 70 21.1 76 76 W 3 6 30.20 1023 10 16 0.00 0.00
8:53 am 08:53 Sunny 81 27.2 71 21.7 72 72 Calm 30.20 1023 10 16 0.00 0.00
9:53 am 09:53 Sunny 87 30.6 69 20.6 55 55 VRB 3 6 30.21 1023 10 16 0.00 0.00
10:53 am 10:53 Mostly Sunny 88 31.1 69 20.6 54 54 NW 8 13 30.20 1023 10 16 0.00 0.00
11:53 am 11:53 Sunny 88 31.1 68 20 52 52 ENE 3 6 30.19 1022 10 16 0.00 0.00
12:27 pm 12:27 Partly Cloudy with Thunderstorms 87 30.6 67 19.4 51 51 E 3 6 30.16 1021 10 16 0.00 0.00
12:43 pm 12:43 Mostly Sunny 88 31.1 68 20 52 52 Calm 30.16 1021 10 16 0.00 0.00
12:53 pm 12:53 Partly Cloudy 86 30 71 21.7 61 61 WSW 8 13 30.17 1022 10 16 0.00 0.00
1:08 pm 13:08 Partly Cloudy with Nearby Thunderstorms 87 30.6 72 22.2 61 61 SW 13 20 30.16 1021 10 16 0.00 0.00
1:45 pm 13:45 Partly Cloudy with Thunderstorms 78 25.6 64 17.8 62 62 W 29 46 30.20 1023 10 16 0.00 0.00
1:53 pm 13:53 Mostly Cloudy with Thunderstorms 77 25 63 17.2 62 62 W 23 37 30.21 1023 10 16 0.00 0.00
2:00 pm 14:00 Mostly Cloudy with Nearby Thunderstorms 76 24.4 63 17.2 64 64 W 23 37 30.21 1023 10 16 0.00 0.00
2:20 pm 14:20 Partly Cloudy 75 23.9 65 18.3 71 71 W 15 24 30.19 1022 10 16 0.00 0.00
2:53 pm 14:53 Sunny 75 23.9 65 18.3 71 71 WNW 12 19 30.19 1022 10 16 0.00 0.00
3:53 pm 15:53 Mostly Sunny 73 22.8 66 18.9 79 79 WNW 5 7 30.18 1022 10 16 0.00 0.00
4:53 pm 16:53 Partly Cloudy 73 22.8 66 18.9 79 79 Calm 30.17 1022 10 16 0.00 0.00
5:53 pm 17:53 Partly Cloudy 76 24.4 66 18.9 72 72 VRB 3 6 30.17 1022 10 16 0.00 0.00
6:53 pm 18:53 Sunny 75 23.9 66 18.9 74 74 Calm 30.15 1021 10 16 0.00 0.00
7:53 pm 19:53 Sunny 75 23.9 68 20 79 79 NW 3 6 30.17 1022 10 16 0.00 0.00
8:53 pm 20:53 Clear 73 22.8 68 20 84 84 undefined N/A 30.17 1022 10 16 0.00 0.00
9:53 pm 21:53 Clear 73 22.8 69 20.6 87 87 Calm 30.18 1022 10 16 0.00 0.00
10:53 pm 22:53 Clear 72 22.2 68 20 87 87 Calm 30.16 1022 10 16 0.00 0.00
11:53 pm 23:53 Clear 72 22.2 68 20 87 87 Calm 30.17 1022 10 16 0.00 0.00

Powered by AerisWeather